Regional Weather Roundup
Issued by NWS

Home | Current Version | Previous Version | Text Only | Print | Product List | Glossary On
Versions: 1 2 3 4 5 6 7 8 9 10 11 12 13 14 15 16 17 18 19 20 21 22 23 24 25 26 27 28 29 30 31 32 33 34 35 36 37 38 39 40 41 42 43 44 45 46 47 48 49 50
000
ASUS44 KFWD 260910
RWRTX
NORTH TEXAS HOURLY WEATHER ROUNDUP
NATIONAL WEATHER SERVICE FORT WORTH TX
400 AM CDT THU MAY 26 2016

NOTE: "FAIR" INDICATES FEW OR NO CLOUDS BELOW 12,000 FEET WITH NO
SIGNIFICANT WEATHER AND/OR OBSTRUCTIONS TO VISIBILITY.

TXZ118-119-261000-
DALLAS/FORT WORTH METROPLEX

CITY           SKY/WX    TMP DP  RH WIND       PRES   REMARKS
DFW AIRPORT    MOCLDY    78  72  81 S12       29.91S
DALLAS LOVE    CLOUDY    78  72  81 S16       29.91F
FTW MEACHAM    CLOUDY    79  73  82 S18       29.90F
DAL-EXECUTIVE  CLOUDY    77  71  82 S10G18    29.91F
FTW-ALLIANCE   CLOUDY    77  72  84 S10       29.90F
FTW-NAS-JRB    CLOUDY    78  73  84 S13       29.91F
FTW-SPINKS     CLOUDY    78  73  85 S10G20    29.93S HAZE
ARLINGTON      CLOUDY    80  73  79 S13       29.91F
GRAND PRAIRIE  CLOUDY    77  71  81 S12G18    29.93S
ADDISON        CLOUDY    78  74  87 S13G18    29.94S
MESQUITE       CLOUDY    76  73  91 S10       29.94S
LANCASTER      CLOUDY    76  71  83 SE8       29.94S
$$

TXZ091>094-102>105-117-120-121-131>134-261000-
NORTH CENTRAL TEXAS

CITY           SKY/WX    TMP DP  RH WIND       PRES   REMARKS
SHRMAN/DENISON CLEAR     73  68  83 S16       29.91F
GAINESVILLE    CLOUDY    76  72  88 S13       29.92S
BOWIE          CLOUDY    76  73  88 SE12      29.89F
BRIDGEPORT     CLOUDY    78  74  88 S12G21    29.91S
DECATUR        CLOUDY    76  73  91 SE10      29.91F
DENTON         CLOUDY    76  72  87 S15G21    29.90F
MCKINNEY       CLOUDY    77  73  87 S17       29.92F
GREENVILLE     MOCLDY    77  72  83 S10G18    29.95F
ROCKWALL       CLOUDY    77  73  88 SE12G23   29.93S
TERRELL        CLOUDY    76  73  91 S12       29.94F
WAXAHACHIE     CLOUDY    75  74  97 S6        29.95R
CLEBURNE       CLOUDY    77  77 100 S13G20    29.93S
GRANBURY       CLOUDY    79  73  82 SE12      29.90F
$$

TXZ083>090-098>101-113>116-127>130-139>142-154-155-261000-
WESTERN NORTH TEXAS

CITY           SKY/WX    TMP DP  RH WIND       PRES   REMARKS
WICHITA FALLS  CLOUDY    75  73  93 S12       29.85S FOG
WF-KICKAPOO    CLEAR     76  73  88 S14       29.86F FOG
VERNON         CLEAR     76  70  81 S9        29.84F
ABILENE        CLOUDY    78  73  84 S14G24    29.86F
ABILENE-DYESS  CLOUDY    78  68  71 S14G26    29.84F
BRECKENRIDGE   MOCLDY    78  75  90 S9        29.87F
GRAHAM         MOCLDY    77  75  93 SE7       29.86S
MINERAL WELLS  CLOUDY    77  73  87 S10       29.88F
STEPHENVILLE   CLOUDY    76  72  88 S7        29.93F
COMANCHE       CLOUDY    76  76 100 CALM      29.91F
BROWNWOOD      LGT RAIN  77  75  94 S6        29.93R
COLEMAN        LGT RAIN  76  73  91 SW8       29.95S
$$

TXZ143>147-156>162-174-175-261000-
CENTRAL TEXAS

CITY           SKY/WX    TMP DP  RH WIND       PRES   REMARKS
WACO           CLOUDY    77  72  84 S12       29.94R
WACO-MCGREGOR  CLOUDY    76  74  93 SE10      29.94R
HILLSBORO      CLOUDY    75  72  90 S13       29.94S
CORSICANA      MOCLDY    77  72  84 S12       29.96S
MEXIA          CLOUDY    75  74  97 SE9       29.95S
HEARNE         CLOUDY    77  74  92 SE8       29.96S
CAMERON        CLOUDY    77  74  90 S8        29.95R
TEMPLE         CLOUDY    76  74  93 SE13      29.95R
KILLEEN        CLOUDY    75  73  94 SE12      29.92F
KILLEEN-SKYLRK CLOUDY    76  74  93 S10       29.93F
FORT HOOD      CLOUDY    73  73 100 SE12      29.91F
GATESVILLE     CLOUDY    77  73  88 SE8       29.94F
HAMILTON       CLOUDY    76  76 100 S10       29.93F
LAMPASAS       CLOUDY    77  75  92 SE6       29.92S
$$

TXZ095>097-106>112-122>126-135>138-148>153-164>167-261000-
EAST TEXAS

CITY           SKY/WX    TMP DP  RH WIND       PRES   REMARKS
PARIS          CLEAR     75  66  73 S13       29.96R
SULPHUR SPRNGS CLOUDY    77  73  87 S8        29.98S
MOUNT PLEASANT PTCLDY    76  71  82 S8        29.99S
GILMER         CLOUDY    76  72  88 S7        29.98F THUNDER
MINEOLA        PTCLDY    77  73  88 S5        29.98S
TYLER          MOCLDY    77  72  84 S7        29.98R
LONGVIEW       CLOUDY    75  73  93 SE6       29.98S
MARSHALL       CLOUDY    73  70  91 S5        30.01S
ATHENS         CLOUDY    75  73  94 S8        29.96S
PALESTINE      CLOUDY    77  74  91 SE7       29.98F
JACKSONVILLE   CLOUDY    75  74  95 S8        30.01S
HENDERSON      CLOUDY    75  72  89 S9        29.99F
CENTER         CLOUDY    77  75  95 SE6       30.00S
NACOGDOCHES    CLOUDY    75  72  88 S5        29.99S
LUFKIN         CLOUDY    76  73  91 SE7       29.99S
$$

SUPPLEMENTAL OBSERVATIONS (CENTRAL)

CITY           SKY/WX    TMP DP  RH WIND       PRES   REMARKS
PAT MAYSE LAKE   N/A     75  73  94 SE12        N/A
GREENVILLE       N/A     77  72  83 S9G17       N/A
MCGREGOR         N/A     75  70  83 SE10        N/A
TEMPLE           N/A     75  72  88 SE8         N/A
$$

SUPPLEMENTAL OBSERVATIONS (WEST)

CITY           SKY/WX    TMP DP  RH WIND       PRES   REMARKS
MILLERS CREEK    N/A     75  70  83 S7          N/A
POSSUM KINGDOM   N/A     77  73  88 S7          N/A
GRANBURY         N/A     79  73  83 SE12        N/A
HAMBY            N/A     77  12   8 S9G17       N/A
$$

SUPPLEMENTAL OBSERVATIONS (EAST)

CITY           SKY/WX    TMP DP  RH WIND       PRES   REMARKS
TEXARKANA        N/A     73  68  83 SE1         N/A
LINDEN           N/A     75  72  88 S2          N/A
GILMER           N/A     75  70  83 S5          N/A
HENDERSON        N/A     75  72  88 S5          N/A
LUFKIN           N/A     75  70  83 MISG        N/A
$$

SUPPLEMENTAL OBSERVATIONS ARE A COLLECTION OF AUTOMATED INSTRUMENTS
THAT ARE MAINTAINED BY A VARIETY OF FEDERAL AND STATE AGENCIES.
CERTAIN ELEMENTS...SUCH AS HUMIDITY VALUES AND SUSTAINED WIND
SPEEDS...MAY BE APPROXIMATED.




USA.gov is the U.S. government's official web portal to all federal, state and local government web resources and services.